owner,sensor,date,latitude,longitude,vertical_datum,direction_of_sea_water_velocity,sea_water_speed,upward_sea_water_velocity,qcFlag 
TABS,ioos:station:wmo:42049:1,2016-05-01T00:00:00Z,28.3507,-96.0058,2.0,238.9487769,69.93034391,-99999.0,'11111222,11111222,99999999' 
TABS,ioos:station:wmo:42049:1,2016-05-01T00:30:00Z,28.3507,-96.0058,2.0,242.5912729,71.10124682,-99999.0,'11111222,11111222,99999999' 
TABS,ioos:station:wmo:42049:1,2016-05-01T01:00:00Z,28.3507,-96.0058,2.0,241.1448609,70.18360065,-99999.0,'11111222,11111222,99999999' 
TABS,ioos:station:wmo:42049:1,2016-05-01T01:30:00Z,28.3507,-96.0058,2.0,237.9605654,70.27363161,-99999.0,'11111222,11111222,99999999' 
TABS,ioos:station:wmo:42049:1,2016-05-01T02:00:00Z,28.3507,-96.0058,2.0,237.3898048,67.82137864,-99999.0,'11111222,11111222,99999999' 
TABS,ioos:station:wmo:42049:1,2016-05-01T02:30:00Z,28.3507,-96.0058,2.0,237.7065992,68.82546985,-99999.0,'11111222,11111222,99999999' 
TABS,ioos:station:wmo:42049:1,2016-05-01T03:00:00Z,28.3507,-96.0058,2.0,239.5959281,68.60442624,-99999.0,'11111222,11111222,99999999' 
TABS,ioos:station:wmo:42049:1,2016-05-01T03:30:00Z,28.3507,-96.0058,2.0,237.5510378,66.18294795,-99999.0,'11111222,11111222,99999999' 
TABS,ioos:station:wmo:42049:1,2016-05-01T04:00:00Z,28.3507,-96.0058,2.0,238.826317,73.1412059,-99999.0,'11111222,11111222,99999999' 
TABS,ioos:station:wmo:42049:1,2016-05-01T04:30:00Z,28.3507,-96.0058,2.0,237.6494631,70.45509492,-99999.0,'11111222,11111222,99999999' 
TABS,ioos:station:wmo:42049:1,2016-05-01T05:00:00Z,28.3507,-96.0058,2.0,236.9361887,72.78656538,-99999.0,'11111222,11111222,99999999' 
TABS,ioos:station:wmo:42049:1,2016-05-01T05:30:00Z,28.3507,-96.0058,2.0,233.5039405,74.1135804,-99999.0,'11111222,11111222,99999999' 
TABS,ioos:station:wmo:42049:1,2016-05-01T06:00:00Z,28.3507,-96.0058,2.0,232.8327689,76.00902118,-99999.0,'11111222,11111222,99999999' 
TABS,ioos:station:wmo:42049:1,2016-05-04T17:00:00Z,28.3507,-96.0058,2.0,250.9925893,57.32546467,-99999.0,'11111222,11111222,99999999' 
TABS,ioos:station:wmo:42049:1,2016-05-04T17:30:00Z,28.3507,-96.0058,2.0,255.8749038,56.54967374,-99999.0,'11111222,11111222,99999999' 
TABS,ioos:station:wmo:42049:1,2016-05-04T18:00:00Z,28.3507,-96.0058,2.0,252.8682995,51.56796001,-99999.0,'11111222,11111222,99999999' 
TABS,ioos:station:wmo:42049:1,2016-05-04T18:30:00Z,28.3507,-96.0058,2.0,254.902671,48.60761772,-99999.0,'11111222,11111222,99999999' 
TABS,ioos:station:wmo:42049:1,2016-05-04T19:00:00Z,28.3507,-96.0058,2.0,249.201854,46.32880961,-99999.0,'11111222,11111222,99999999' 
TABS,ioos:station:wmo:42049:1,2016-05-04T19:30:00Z,28.3507,-96.0058,2.0,246.598687,52.42179413,-99999.0,'11111222,11111222,99999999' 
TABS,ioos:station:wmo:42049:1,2016-05-04T20:00:00Z,28.3507,-96.0058,2.0,242.3606064,52.2526717,-99999.0,'11111222,11111222,99999999' 
TABS,ioos:station:wmo:42049:1,2016-05-04T20:30:00Z,28.3507,-96.0058,2.0,241.6488147,54.24652247,-99999.0,'11111222,11111222,99999999' 
TABS,ioos:station:wmo:42049:1,2016-05-04T21:00:00Z,28.3507,-96.0058,2.0,239.225517,56.48336835,-99999.0,'11111222,11111222,99999999' 
TABS,ioos:station:wmo:42049:1,2016-05-04T21:30:00Z,28.3507,-96.0058,2.0,229.8017496,57.77543596,-99999.0,'11111222,11111222,99999999' 
TABS,ioos:station:wmo:42049:1,2016-05-04T22:00:00Z,28.3507,-96.0058,2.0,223.7064523,57.02147315,-99999.0,'11111222,11111222,99999999' 
TABS,ioos:station:wmo:42049:1,2016-05-04T22:30:00Z,28.3507,-96.0058,2.0,222.2699369,55.97444864,-99999.0,'11111222,11111222,99999999' 
TABS,ioos:station:wmo:42049:1,2016-05-04T23:00:00Z,28.3507,-96.0058,2.0,217.6590449,51.96693276,-99999.0,'11111222,11111222,99999999' 
TABS,ioos:station:wmo:42049:1,2016-05-04T23:30:00Z,28.3507,-96.0058,2.0,225.8144139,49.72877638,-99999.0,'11111222,11111222,99999999' 
TABS,ioos:station:wmo:42049:1,2016-05-05T00:00:00Z,28.3507,-96.0058,2.0,228.7617193,50.75943755,-99999.0,'11111222,11111222,99999999' 
TABS,ioos:station:wmo:42049:1,2016-05-05T00:30:00Z,28.3507,-96.0058,2.0,230.9691408,53.10175233,-99999.0,'11111222,11111222,99999999' 
TABS,ioos:station:wmo:42049:1,2016-05-05T01:00:00Z,28.3507,-96.0058,2.0,231.304001,59.88640246,-99999.0,'11111222,11111222,99999999' 
TABS,ioos:station:wmo:42049:1,2016-05-05T01:30:00Z,28.3507,-96.0058,2.0,227.5980495,61.45419432,-99999.0,'11111222,11111222,99999999' 
TABS,ioos:station:wmo:42049:1,2016-05-05T02:00:00Z,28.3507,-96.0058,2.0,225.9176184,55.61401442,-99999.0,'11111222,11111222,99999999' 
TABS,ioos:station:wmo:42049:1,2016-05-05T02:30:00Z,28.3507,-96.0058,2.0,226.527723,52.23841211,-99999.0,'11111222,11111222,99999999' 
TABS,ioos:station:wmo:42049:1,2016-05-05T03:00:00Z,28.3507,-96.0058,2.0,220.8996854,50.1419874,-99999.0,'11111222,11111222,99999999' 
TABS,ioos:station:wmo:42049:1,2016-05-05T03:30:00Z,28.3507,-96.0058,2.0,221.7923539,45.75076174,-99999.0,'11111222,11111222,99999999' 
TABS,ioos:station:wmo:42049:1,2016-05-05T04:00:00Z,28.3507,-96.0058,2.0,222.3520004,38.72715456,-99999.0,'11111222,11111222,99999999' 
TABS,ioos:station:wmo:42049:1,2016-05-05T04:30:00Z,28.3507,-96.0058,2.0,232.9481602,33.44216799,-99999.0,'11111222,11111222,99999999' 
TABS,ioos:station:wmo:42049:1,2016-05-05T05:00:00Z,28.3507,-96.0058,2.0,229.8601983,32.29657103,-99999.0,'11111222,11111222,99999999' 
TABS,ioos:station:wmo:42049:1,2016-05-05T05:30:00Z,28.3507,-96.0058,2.0,239.9386377,20.68186645,-99999.0,'11111222,11111222,99999999' 
TABS,ioos:station:wmo:42049:1,2016-05-05T06:00:00Z,28.3507,-96.0058,2.0,252.2711605,10.77153657,-99999.0,'11111222,11111222,99999999' 
TABS,ioos:station:wmo:42049:1,2016-05-05T06:30:00Z,28.3507,-96.0058,2.0,216.911311,8.242002184,-99999.0,'11133222,11111222,99999999' 
TABS,ioos:station:wmo:42049:1,2016-05-05T07:00:00Z,28.3507,-96.0058,2.0,200.4197574,4.929787014,-99999.0,'11133222,11111222,99999999' 
TABS,ioos:station:wmo:42049:1,2016-05-05T07:30:00Z,28.3507,-96.0058,2.0,189.7217848,8.705015796,-99999.0,'11133222,11111222,99999999' 
TABS,ioos:station:wmo:42049:1,2016-05-05T08:00:00Z,28.3507,-96.0058,2.0,200.1672159,6.903245613,-99999.0,'11133222,11111222,99999999' 
TABS,ioos:station:wmo:42049:1,2016-05-05T08:30:00Z,28.3507,-96.0058,2.0,182.3084823,12.66027646,-99999.0,'11111222,11111222,99999999' 
TABS,ioos:station:wmo:42049:1,2016-05-05T09:00:00Z,28.3507,-96.0058,2.0,182.5421348,15.55531099,-99999.0,'11111222,11111222,99999999' 
TABS,ioos:station:wmo:42049:1,2016-05-05T09:30:00Z,28.3507,-96.0058,2.0,177.9319693,21.89425724,-99999.0,'11111222,11111222,99999999' 
TABS,ioos:station:wmo:42049:1,2016-05-05T10:00:00Z,28.3507,-96.0058,2.0,181.0563517,29.28497908,-99999.0,'11111222,11111222,99999999' 
TABS,ioos:station:wmo:42049:1,2016-05-05T10:30:00Z,28.3507,-96.0058,2.0,181.5332271,28.40017077,-99999.0,'11111222,11111222,99999999' 
TABS,ioos:station:wmo:42049:1,2016-05-05T11:00:00Z,28.3507,-96.0058,2.0,185.6464429,35.67310051,-99999.0,'11111222,11111222,99999999' 
TABS,ioos:station:wmo:42049:1,2016-05-05T11:30:00Z,28.3507,-96.0058,2.0,190.7740282,40.06631628,-99999.0,'11111222,11111222,99999999' 
TABS,ioos:station:wmo:42049:1,2016-05-05T12:00:00Z,28.3507,-96.0058,2.0,192.3364081,43.01321309,-99999.0,'11111222,11111222,99999999' 
TABS,ioos:station:wmo:42049:1,2016-05-05T12:30:00Z,28.3507,-96.0058,2.0,192.2533264,45.60907037,-99999.0,'11111222,11111222,99999999' 
TABS,ioos:station:wmo:42049:1,2016-05-05T13:00:00Z,28.3507,-96.0058,2.0,190.8370172,47.06947418,-99999.0,'11111222,11111222,99999999' 
TABS,ioos:station:wmo:42049:1,2016-05-05T13:30:00Z,28.3507,-96.0058,2.0,189.0443335,45.54630611,-99999.0,'11111222,11111222,99999999' 
TABS,ioos:station:wmo:42049:1,2016-05-05T14:00:00Z,28.3507,-96.0058,2.0,185.4068774,46.58729977,-99999.0,'11111222,11111222,99999999' 
TABS,ioos:station:wmo:42049:1,2016-05-05T14:30:00Z,28.3507,-96.0058,2.0,184.0086982,45.77199581,-99999.0,'11111222,11111222,99999999' 
TABS,ioos:station:wmo:42049:1,2016-05-05T15:00:00Z,28.3507,-96.0058,2.0,182.1120327,43.13931154,-99999.0,'11111222,11111222,99999999' 
TABS,ioos:station:wmo:42049:1,2016-05-05T15:30:00Z,28.3507,-96.0058,2.0,178.4687751,41.54483121,-99999.0,'11111222,11111222,99999999' 
TABS,ioos:station:wmo:42049:1,2016-05-05T16:00:00Z,28.3507,-96.0058,2.0,180.6365354,41.39255609,-99999.0,'11111222,11111222,99999999' 
TABS,ioos:station:wmo:42049:1,2016-05-05T16:30:00Z,28.3507,-96.0058,2.0,175.838913,41.76006944,-99999.0,'11111222,11111222,99999999' 
TABS,ioos:station:wmo:42049:1,2016-05-05T17:00:00Z,28.3507,-96.0058,2.0,171.9512962,41.7108571,-99999.0,'11111222,11111222,99999999' 
TABS,ioos:station:wmo:42049:1,2016-05-05T17:30:00Z,28.3507,-96.0058,2.0,175.0590724,41.91574525,-99999.0,'11111222,11111222,99999999' 
TABS,ioos:station:wmo:42049:1,2016-05-05T18:00:00Z,28.3507,-96.0058,2.0,179.3994738,39.13214791,-99999.0,'11111222,11111222,99999999' 
TABS,ioos:station:wmo:42049:1,2016-05-05T18:30:00Z,28.3507,-96.0058,2.0,183.3479834,38.69605277,-99999.0,'11111222,11111222,99999999' 
TABS,ioos:station:wmo:42049:1,2016-05-05T19:00:00Z,28.3507,-96.0058,2.0,189.4305912,38.8754344,-99999.0,'11111222,11111222,99999999' 
TABS,ioos:station:wmo:42049:1,2016-05-05T19:30:00Z,28.3507,-96.0058,2.0,193.7345183,41.02304352,-99999.0,'11111222,11111222,99999999' 
TABS,ioos:station:wmo:42049:1,2016-05-05T20:00:00Z,28.3507,-96.0058,2.0,199.9888816,40.57429975,-99999.0,'11111222,11111222,99999999' 
TABS,ioos:station:wmo:42049:1,2016-05-05T20:30:00Z,28.3507,-96.0058,2.0,198.5866727,36.95766903,-99999.0,'11111222,11111222,99999999' 
TABS,ioos:station:wmo:42049:1,2016-05-05T21:00:00Z,28.3507,-96.0058,2.0,208.4111446,39.97481707,-99999.0,'11111222,11111222,99999999' 
TABS,ioos:station:wmo:42049:1,2016-05-05T21:30:00Z,28.3507,-96.0058,2.0,210.608684,40.71282967,-99999.0,'11111222,11111222,99999999' 
TABS,ioos:station:wmo:42049:1,2016-05-05T22:00:00Z,28.3507,-96.0058,2.0,216.5459167,39.29662708,-99999.0,'11111222,11111222,99999999' 
TABS,ioos:station:wmo:42049:1,2016-05-05T22:30:00Z,28.3507,-96.0058,2.0,219.1701464,41.00504969,-99999.0,'11111222,11111222,99999999' 
TABS,ioos:station:wmo:42049:1,2016-05-05T23:00:00Z,28.3507,-96.0058,2.0,218.8253209,38.85463293,-99999.0,'11111222,11111222,99999999' 
TABS,ioos:station:wmo:42049:1,2016-05-05T23:30:00Z,28.3507,-96.0058,2.0,218.6162164,37.20528591,-99999.0,'11111222,11111222,99999999' 
TABS,ioos:station:wmo:42049:1,2016-05-06T00:00:00Z,28.3507,-96.0058,2.0,224.1673882,35.53586498,-99999.0,'11111222,11111222,99999999' 
TABS,ioos:station:wmo:42049:1,2016-05-06T00:30:00Z,28.3507,-96.0058,2.0,224.3567427,34.02812072,-99999.0,'11111222,11111222,99999999' 
TABS,ioos:station:wmo:42049:1,2016-05-06T01:00:00Z,28.3507,-96.0058,2.0,221.2820956,31.84438726,-99999.0,'11111222,11111222,99999999' 
TABS,ioos:station:wmo:42049:1,2016-05-06T01:30:00Z,28.3507,-96.0058,2.0,225.2666967,28.82905652,-99999.0,'11111222,11111222,99999999' 
TABS,ioos:station:wmo:42049:1,2016-05-06T02:00:00Z,28.3507,-96.0058,2.0,224.4670345,29.66441134,-99999.0,'11111222,11111222,99999999' 
TABS,ioos:station:wmo:42049:1,2016-05-06T02:30:00Z,28.3507,-96.0058,2.0,227.232302,29.04170794,-99999.0,'11111222,11111222,99999999' 
TABS,ioos:station:wmo:42049:1,2016-05-06T03:00:00Z,28.3507,-96.0058,2.0,225.5518784,27.14709008,-99999.0,'11111222,11111222,99999999' 
TABS,ioos:station:wmo:42049:1,2016-05-06T03:30:00Z,28.3507,-96.0058,2.0,232.8049804,26.81443082,-99999.0,'11111222,11111222,99999999' 
TABS,ioos:station:wmo:42049:1,2016-05-06T04:00:00Z,28.3507,-96.0058,2.0,233.181731,28.66801179,-99999.0,'11111222,11111222,99999999' 
TABS,ioos:station:wmo:42049:1,2016-05-06T04:30:00Z,28.3507,-96.0058,2.0,239.9792849,27.60300889,-99999.0,'11111222,11111222,99999999' 
TABS,ioos:station:wmo:42049:1,2016-05-06T05:00:00Z,28.3507,-96.0058,2.0,236.709576,24.63206244,-99999.0,'11111222,11111222,99999999' 
TABS,ioos:station:wmo:42049:1,2016-05-06T05:30:00Z,28.3507,-96.0058,2.0,251.1811931,25.51382762,-99999.0,'11111222,11111222,99999999' 
TABS,ioos:station:wmo:42049:1,2016-05-06T06:00:00Z,28.3507,-96.0058,2.0,258.7484723,26.75417724,-99999.0,'11111222,11111222,99999999' 
TABS,ioos:station:wmo:42049:1,2016-05-06T06:30:00Z,28.3507,-96.0058,2.0,269.1352707,27.84316792,-99999.0,'11111222,11111222,99999999' 
TABS,ioos:station:wmo:42049:1,2016-05-06T07:00:00Z,28.3507,-96.0058,2.0,265.8051457,29.25836632,-99999.0,'11111222,11111222,99999999' 
TABS,ioos:station:wmo:42049:1,2016-05-06T07:30:00Z,28.3507,-96.0058,2.0,268.289769,30.16342984,-99999.0,'11111222,11111222,99999999' 
TABS,ioos:station:wmo:42049:1,2016-05-06T08:00:00Z,28.3507,-96.0058,2.0,271.4388041,31.87004236,-99999.0,'11111222,11111222,99999999' 
TABS,ioos:station:wmo:42049:1,2016-05-06T08:30:00Z,28.3507,-96.0058,2.0,273.3074802,31.72282774,-99999.0,'11111222,11111222,99999999' 
TABS,ioos:station:wmo:42049:1,2016-05-06T09:00:00Z,28.3507,-96.0058,2.0,275.6907464,30.96257418,-99999.0,'11111222,11111222,99999999' 
TABS,ioos:station:wmo:42049:1,2016-05-06T09:30:00Z,28.3507,-96.0058,2.0,284.5787903,31.78329121,-99999.0,'11111222,11111222,99999999' 
TABS,ioos:station:wmo:42049:1,2016-05-06T10:00:00Z,28.3507,-96.0058,2.0,282.0192706,29.00583562,-99999.0,'11111222,11111222,99999999' 
TABS,ioos:station:wmo:42049:1,2016-05-06T10:30:00Z,28.3507,-96.0058,2.0,286.4421147,26.6393337,-99999.0,'11111222,11111222,99999999' 
TABS,ioos:station:wmo:42049:1,2016-05-06T11:00:00Z,28.3507,-96.0058,2.0,288.9599691,23.48405842,-99999.0,'11111222,11111222,99999999' 
TABS,ioos:station:wmo:42049:1,2016-05-06T11:30:00Z,28.3507,-96.0058,2.0,302.5556433,27.16899704,-99999.0,'11111222,11111222,99999999' 
TABS,ioos:station:wmo:42049:1,2016-05-06T12:00:00Z,28.3507,-96.0058,2.0,299.1711343,22.03463637,-99999.0,'11111222,11111222,99999999' 
TABS,ioos:station:wmo:42049:1,2016-05-06T12:30:00Z,28.3507,-96.0058,2.0,317.7943456,22.19418167,-99999.0,'11111222,11111222,99999999' 
TABS,ioos:station:wmo:42049:1,2016-05-06T13:00:00Z,28.3507,-96.0058,2.0,328.2436843,16.11211966,-99999.0,'11111222,11111222,99999999' 
TABS,ioos:station:wmo:42049:1,2016-05-06T13:30:00Z,28.3507,-96.0058,2.0,334.8501704,17.92978806,-99999.0,'11111222,11111222,99999999' 
TABS,ioos:station:wmo:42049:1,2016-05-06T14:00:00Z,28.3507,-96.0058,2.0,347.2403319,17.74830978,-99999.0,'11111222,11111222,99999999' 
TABS,ioos:station:wmo:42049:1,2016-05-06T14:30:00Z,28.3507,-96.0058,2.0,346.0542937,16.92900765,-99999.0,'11111222,11111222,99999999' 
TABS,ioos:station:wmo:42049:1,2016-05-06T15:00:00Z,28.3507,-96.0058,2.0,340.1731553,17.57163908,-99999.0,'11111222,11111222,99999999' 
TABS,ioos:station:wmo:42049:1,2016-05-06T15:30:00Z,28.3507,-96.0058,2.0,341.8748685,14.04704239,-99999.0,'11111222,11111222,99999999' 
TABS,ioos:station:wmo:42049:1,2016-05-06T16:00:00Z,28.3507,-96.0058,2.0,335.5748108,12.81713306,-99999.0,'11111222,11111222,99999999' 
TABS,ioos:station:wmo:42049:1,2016-05-06T16:30:00Z,28.3507,-96.0058,2.0,342.8137968,15.09397231,-99999.0,'11111222,11111222,99999999' 
TABS,ioos:station:wmo:42049:1,2016-05-06T17:00:00Z,28.3507,-96.0058,2.0,358.8603956,11.56228784,-99999.0,'11111222,11111222,99999999' 
TABS,ioos:station:wmo:42049:1,2016-05-06T17:30:00Z,28.3507,-96.0058,2.0,355.5104576,13.02998465,-99999.0,'11111222,11111222,99999999' 
TABS,ioos:station:wmo:42049:1,2016-05-06T18:00:00Z,28.3507,-96.0058,2.0,9.244398263,13.81947901,-99999.0,'11111222,11111222,99999999' 
TABS,ioos:station:wmo:42049:1,2016-05-06T18:30:00Z,28.3507,-96.0058,2.0,12.34937928,13.84023121,-99999.0,'11111222,11111222,99999999' 
TABS,ioos:station:wmo:42049:1,2016-05-06T19:00:00Z,28.3507,-96.0058,2.0,355.8655488,14.97898528,-99999.0,'11111222,11111222,99999999' 
TABS,ioos:station:wmo:42049:1,2016-05-06T19:30:00Z,28.3507,-96.0058,2.0,344.3109877,16.89963905,-99999.0,'11111222,11111222,99999999' 
TABS,ioos:station:wmo:42049:1,2016-05-06T20:00:00Z,28.3507,-96.0058,2.0,337.7830793,18.16891026,-99999.0,'11111222,11111222,99999999' 
TABS,ioos:station:wmo:42049:1,2016-05-06T20:30:00Z,28.3507,-96.0058,2.0,340.8459428,21.91314902,-99999.0,'11111222,11111222,99999999' 
TABS,ioos:station:wmo:42049:1,2016-05-06T21:00:00Z,28.3507,-96.0058,2.0,348.3081496,35.57821946,-99999.0,'11111222,11111222,99999999' 
TABS,ioos:station:wmo:42049:1,2016-05-06T21:30:00Z,28.3507,-96.0058,2.0,8.299512554,32.56099507,-99999.0,'11111222,11111222,99999999' 
TABS,ioos:station:wmo:42049:1,2016-05-06T22:00:00Z,28.3507,-96.0058,2.0,8.042906141,34.30744671,-99999.0,'11111222,11111222,99999999' 
TABS,ioos:station:wmo:42049:1,2016-05-06T22:30:00Z,28.3507,-96.0058,2.0,9.910381248,34.28152418,-99999.0,'11111222,11111222,99999999' 
TABS,ioos:station:wmo:42049:1,2016-05-06T23:00:00Z,28.3507,-96.0058,2.0,9.162536079,34.54070063,-99999.0,'11111222,11111222,99999999' 
TABS,ioos:station:wmo:42049:1,2016-05-06T23:30:00Z,28.3507,-96.0058,2.0,10.34558838,32.85410781,-99999.0,'11111222,11111222,99999999' 
TABS,ioos:station:wmo:42049:1,2016-05-07T00:00:00Z,28.3507,-96.0058,2.0,12.1577332,36.32468307,-99999.0,'11111222,11111222,99999999' 
TABS,ioos:station:wmo:42049:1,2016-05-07T00:30:00Z,28.3507,-96.0058,2.0,15.07978216,36.36211903,-99999.0,'11111222,11111222,99999999' 
TABS,ioos:station:wmo:42049:1,2016-05-07T01:00:00Z,28.3507,-96.0058,2.0,9.730413773,36.56602248,-99999.0,'11111222,11111222,99999999' 
TABS,ioos:station:wmo:42049:1,2016-05-07T01:30:00Z,28.3507,-96.0058,2.0,12.97271951,35.01362592,-99999.0,'11111222,11111222,99999999' 
TABS,ioos:station:wmo:42049:1,2016-05-07T02:00:00Z,28.3507,-96.0058,2.0,13.22239702,35.85038354,-99999.0,'11111222,11111222,99999999' 
TABS,ioos:station:wmo:42049:1,2016-05-07T02:30:00Z,28.3507,-96.0058,2.0,13.34890636,33.35104946,-99999.0,'11111222,11111222,99999999' 
TABS,ioos:station:wmo:42049:1,2016-05-07T03:00:00Z,28.3507,-96.0058,2.0,16.33875225,33.62803146,-99999.0,'11111222,11111222,99999999' 
TABS,ioos:station:wmo:42049:1,2016-05-07T03:30:00Z,28.3507,-96.0058,2.0,18.56583709,31.87900406,-99999.0,'11111222,11111222,99999999' 
TABS,ioos:station:wmo:42049:1,2016-05-07T04:00:00Z,28.3507,-96.0058,2.0,15.12965206,32.79678643,-99999.0,'11111222,11111222,99999999' 
TABS,ioos:station:wmo:42049:1,2016-05-07T04:30:00Z,28.3507,-96.0058,2.0,15.14756767,34.51931054,-99999.0,'11111222,11111222,99999999' 
TABS,ioos:station:wmo:42049:1,2016-05-07T05:00:00Z,28.3507,-96.0058,2.0,18.74407073,34.01395302,-99999.0,'11111222,11111222,99999999' 
TABS,ioos:station:wmo:42049:1,2016-05-07T05:30:00Z,28.3507,-96.0058,2.0,13.00307573,36.31106305,-99999.0,'11111222,11111222,99999999' 
TABS,ioos:station:wmo:42049:1,2016-05-07T06:00:00Z,28.3507,-96.0058,2.0,17.09914242,33.63680425,-99999.0,'11111222,11111222,99999999' 
TABS,ioos:station:wmo:42049:1,2016-05-07T06:30:00Z,28.3507,-96.0058,2.0,17.68313357,33.25105111,-99999.0,'11111222,11111222,99999999' 
TABS,ioos:station:wmo:42049:1,2016-05-07T07:00:00Z,28.3507,-96.0058,2.0,23.08801535,28.53556728,-99999.0,'11111222,11111222,99999999' 
TABS,ioos:station:wmo:42049:1,2016-05-07T07:30:00Z,28.3507,-96.0058,2.0,23.97658443,29.21049469,-99999.0,'11111222,11111222,99999999' 
TABS,ioos:station:wmo:42049:1,2016-05-07T08:00:00Z,28.3507,-96.0058,2.0,27.3554954,28.85696623,-99999.0,'11111222,11111222,99999999' 
TABS,ioos:station:wmo:42049:1,2016-05-07T08:30:00Z,28.3507,-96.0058,2.0,23.47069005,30.15486196,-99999.0,'11111222,11111222,99999999' 
TABS,ioos:station:wmo:42049:1,2016-05-07T09:00:00Z,28.3507,-96.0058,2.0,24.92765715,30.20372494,-99999.0,'11111222,11111222,99999999' 
TABS,ioos:station:wmo:42049:1,2016-05-07T09:30:00Z,28.3507,-96.0058,2.0,32.10775468,27.92038861,-99999.0,'11111222,11111222,99999999' 
TABS,ioos:station:wmo:42049:1,2016-05-07T10:00:00Z,28.3507,-96.0058,2.0,35.81858295,24.19607406,-99999.0,'11111222,11111222,99999999' 
TABS,ioos:station:wmo:42049:1,2016-05-07T10:30:00Z,28.3507,-96.0058,2.0,30.40650044,25.03311806,-99999.0,'11111222,11111222,99999999' 
TABS,ioos:station:wmo:42049:1,2016-05-07T11:00:00Z,28.3507,-96.0058,2.0,40.63007362,23.84933752,-99999.0,'11111222,11111222,99999999' 
TABS,ioos:station:wmo:42049:1,2016-05-07T11:30:00Z,28.3507,-96.0058,2.0,42.30602629,23.91957567,-99999.0,'11111222,11111222,99999999' 
TABS,ioos:station:wmo:42049:1,2016-05-07T12:00:00Z,28.3507,-96.0058,2.0,47.22954778,24.35705237,-99999.0,'11111222,11111222,99999999' 
TABS,ioos:station:wmo:42049:1,2016-05-07T12:30:00Z,28.3507,-96.0058,2.0,48.50821501,25.19192331,-99999.0,'11111222,11111222,99999999' 
TABS,ioos:station:wmo:42049:1,2016-05-07T13:00:00Z,28.3507,-96.0058,2.0,49.13242463,22.86363269,-99999.0,'11111222,11111222,99999999' 
TABS,ioos:station:wmo:42049:1,2016-05-07T13:30:00Z,28.3507,-96.0058,2.0,46.47808561,27.14071664,-99999.0,'11111222,11111222,99999999' 
TABS,ioos:station:wmo:42049:1,2016-05-07T14:00:00Z,28.3507,-96.0058,2.0,42.96591432,24.50254885,-99999.0,'11111222,11111222,99999999' 
TABS,ioos:station:wmo:42049:1,2016-05-07T14:30:00Z,28.3507,-96.0058,2.0,41.96938484,28.48674955,-99999.0,'11111222,11111222,99999999' 
TABS,ioos:station:wmo:42049:1,2016-05-07T15:00:00Z,28.3507,-96.0058,2.0,40.23522785,26.98453075,-99999.0,'11111222,11111222,99999999' 
TABS,ioos:station:wmo:42049:1,2016-05-07T15:30:00Z,28.3507,-96.0058,2.0,34.35806157,26.64960788,-99999.0,'11111222,11111222,99999999' 
TABS,ioos:station:wmo:42049:1,2016-05-07T16:00:00Z,28.3507,-96.0058,2.0,25.78156934,26.48646636,-99999.0,'11111222,11111222,99999999' 
TABS,ioos:station:wmo:42049:1,2016-05-07T16:30:00Z,28.3507,-96.0058,2.0,26.03853081,27.24540328,-99999.0,'11111222,11111222,99999999' 
TABS,ioos:station:wmo:42049:1,2016-05-07T17:00:00Z,28.3507,-96.0058,2.0,18.01716501,30.77926737,-99999.0,'11111222,11111222,99999999' 
TABS,ioos:station:wmo:42049:1,2016-05-07T17:30:00Z,28.3507,-96.0058,2.0,23.45563226,30.75096259,-99999.0,'11111222,11111222,99999999' 
TABS,ioos:station:wmo:42049:1,2016-05-07T18:00:00Z,28.3507,-96.0058,2.0,19.51167799,29.79075192,-99999.0,'11111222,11111222,99999999' 
TABS,ioos:station:wmo:42049:1,2016-05-07T18:30:00Z,28.3507,-96.0058,2.0,20.77119548,30.25651996,-99999.0,'11111222,11111222,99999999' 
TABS,ioos:station:wmo:42049:1,2016-05-07T19:00:00Z,28.3507,-96.0058,2.0,22.38757515,29.95793885,-99999.0,'11111222,11111222,99999999' 
TABS,ioos:station:wmo:42049:1,2016-05-07T19:30:00Z,28.3507,-96.0058,2.0,21.37972502,36.31927863,-99999.0,'11111222,11111222,99999999' 
TABS,ioos:station:wmo:42049:1,2016-05-07T20:00:00Z,28.3507,-96.0058,2.0,27.7013224,37.21548737,-99999.0,'11111222,11111222,99999999' 
TABS,ioos:station:wmo:42049:1,2016-05-07T20:30:00Z,28.3507,-96.0058,2.0,36.28815038,36.03985849,-99999.0,'11111222,11111222,99999999' 
TABS,ioos:station:wmo:42049:1,2016-05-07T21:00:00Z,28.3507,-96.0058,2.0,35.01899478,36.71715948,-99999.0,'11111222,11111222,99999999' 
TABS,ioos:station:wmo:42049:1,2016-05-07T21:30:00Z,28.3507,-96.0058,2.0,42.24314371,36.45819798,-99999.0,'11111222,11111222,99999999' 
TABS,ioos:station:wmo:42049:1,2016-05-07T22:00:00Z,28.3507,-96.0058,2.0,41.66931445,36.02430568,-99999.0,'11111222,11111222,99999999' 
TABS,ioos:station:wmo:42049:1,2016-05-07T22:30:00Z,28.3507,-96.0058,2.0,47.07314754,35.5766131,-99999.0,'11111222,11111222,99999999' 
TABS,ioos:station:wmo:42049:1,2016-05-07T23:00:00Z,28.3507,-96.0058,2.0,43.87911825,34.33660583,-99999.0,'11111222,11111222,99999999' 
TABS,ioos:station:wmo:42049:1,2016-05-07T23:30:00Z,28.3507,-96.0058,2.0,43.4513267,35.05701927,-99999.0,'11111222,11111222,99999999' 
TABS,ioos:station:wmo:42049:1,2016-05-08T00:00:00Z,28.3507,-96.0058,2.0,47.38751206,34.45893933,-99999.0,'11111222,11111222,99999999' 
TABS,ioos:station:wmo:42049:1,2016-05-08T00:30:00Z,28.3507,-96.0058,2.0,45.994605,36.25882651,-99999.0,'11111222,11111222,99999999' 
TABS,ioos:station:wmo:42049:1,2016-05-08T01:00:00Z,28.3507,-96.0058,2.0,49.50681495,35.09615648,-99999.0,'11111222,11111222,99999999' 
TABS,ioos:station:wmo:42049:1,2016-05-08T01:30:00Z,28.3507,-96.0058,2.0,49.65142349,37.14644801,-99999.0,'11111222,11111222,99999999' 
TABS,ioos:station:wmo:42049:1,2016-05-08T02:00:00Z,28.3507,-96.0058,2.0,52.44491176,36.45460739,-99999.0,'11111222,11111222,99999999' 
TABS,ioos:station:wmo:42049:1,2016-05-08T02:30:00Z,28.3507,-96.0058,2.0,45.39624785,38.8635176,-99999.0,'11111222,11111222,99999999' 